Location: Newark
(52.1031°N, 9.3600°E)
Time: 01:29:54
(UTC+00:00)

nSIGHT-1 - Pass Details

Date: 23 December 2019
Orbit: 314 x 316 km, 51.6° (Epoch: 23 January)

Event Time Altitude Azimuth Distance (km) Brightness Sun altitude
Exits shadow 05:09:22 33° 154° (SSE) 561 ? -20.1°
Drops below altitude 10° 05:11:12 10° 126° (SE) 1,214 ? -19.8°
Sets 05:13:11 0° 119° (ESE) 2,040 ? -19.5°
